TimeEDT,TemperatureF,Dew PointF,Humidity,Sea Level PressureIn,VisibilityMPH,Wind Direction,Wind SpeedMPH,Gust SpeedMPH,PrecipitationIn,Events,Conditions,WindDirDegrees,DateUTC
12:51 AM,66.0,64.0,93,30.06,-9999.0,Variable,3.5,-,N/A,,Unknown,0,2013-07-18 04:51:00
1:51 AM,66.9,64.9,93,30.06,-9999.0,SW,6.9,-,N/A,,Unknown,230,2013-07-18 05:51:00
2:51 AM,68.0,64.9,90,30.06,-9999.0,NNW,3.5,-,N/A,,Unknown,340,2013-07-18 06:51:00
3:51 AM,62.1,61.0,96,30.06,-9999.0,North,9.2,-,N/A,,Unknown,10,2013-07-18 07:51:00
4:51 AM,60.1,60.1,100,30.07,-9999.0,Calm,Calm,-,N/A,,Unknown,0,2013-07-18 08:51:00
5:51 AM,64.0,64.0,100,30.06,-9999.0,West,4.6,-,0.10,,Unknown,260,2013-07-18 09:51:00
6:51 AM,66.0,64.9,96,30.03,-9999.0,Calm,Calm,-,0.01,,Unknown,0,2013-07-18 10:51:00
7:51 AM,64.9,64.0,97,30.02,-9999.0,Calm,Calm,-,N/A,,Unknown,0,2013-07-18 11:51:00
8:51 AM,68.0,66.0,93,30.01,-9999.0,SW,4.6,-,0.01,,Unknown,220,2013-07-18 12:51:00
9:51 AM,64.9,64.0,97,29.99,-9999.0,WSW,6.9,-,0.02,,Unknown,240,2013-07-18 13:51:00
10:51 AM,66.0,64.9,96,29.96,-9999.0,WSW,9.2,-,0.06,,Unknown,240,2013-07-18 14:51:00
11:51 AM,66.9,66.0,97,29.91,-9999.0,SW,10.4,18.4,0.02,,Unknown,230,2013-07-18 15:51:00
12:51 PM,70.0,68.0,93,29.88,-9999.0,WSW,11.5,19.6,N/A,,Unknown,240,2013-07-18 16:51:00
1:51 PM,75.0,70.0,84,29.82,-9999.0,WSW,10.4,23.0,N/A,,Unknown,250,2013-07-18 17:51:00
2:51 PM,78.1,71.1,79,29.79,-9999.0,West,6.9,-,N/A,,Unknown,260,2013-07-18 18:51:00
3:51 PM,71.1,66.0,84,29.76,-9999.0,Variable,4.6,-,N/A,,Unknown,0,2013-07-18 19:51:00
4:04 PM,64.4,62.6,94,29.79,-9999.0,Variable,3.5,46.0,N/A,,Unknown,0,2013-07-18 20:04:00
4:11 PM,64.4,62.6,94,29.81,-9999.0,NNW,6.9,-,N/A,,Unknown,340,2013-07-18 20:11:00
4:51 PM,64.0,63.0,96,29.78,-9999.0,Variable,4.6,-,N/A,,Unknown,0,2013-07-18 20:51:00
5:51 PM,63.0,62.1,97,29.80,-9999.0,NNE,4.6,-,0.38,,Unknown,30,2013-07-18 21:51:00
6:51 PM,66.9,66.0,97,29.70,-9999.0,SW,5.8,-,0.14,,Unknown,230,2013-07-18 22:51:00
7:51 PM,69.1,66.9,93,29.66,-9999.0,WSW,5.8,-,N/A,,Unknown,250,2013-07-18 23:51:00
8:51 PM,66.9,64.9,93,29.70,-9999.0,ENE,6.9,16.1,N/A,,Unknown,60,2013-07-19 00:51:00
9:51 PM,66.0,64.0,93,29.71,-9999.0,NNE,6.9,-,0.02,,Unknown,30,2013-07-19 01:51:00
10:51 PM,64.9,64.9,100,29.70,-9999.0,WSW,4.6,-,0.50,,Unknown,240,2013-07-19 02:51:00
11:51 PM,66.9,64.9,93,29.64,-9999.0,WSW,12.7,21.9,0.02,,Unknown,240,2013-07-19 03:51:00